sat.trackr.live / text

‹ back to catalog

STARLINK-38042

NORAD 69991 · 2026-159S

PAYLOAD ACTIVE UNKNOWN

§ Identity

Operator
Country
US
Launch date
2026-07-11
Launch site
AFWTR
Launch vehicle
Mass (kg)
RCS (m²)

Purposes: comms

External: N2YO · Heavens-Above · Gunter

§ Orbital elements

Epoch: 2026-09-19T20:01:25.095936Z

Period
92.95 min
Inclination
97.2857°
Eccentricity
0.0000489
Mean motion
15.49177691 rev/d
Perigee alt
418.8 km
Apogee alt
419.5 km
Semi-major
6,797.3 km
B*
3.4404e-4
RAAN
104.6384°
Arg perigee
161.7813°
Mean anomaly
198.3456°
Rev number
1,234

§ Raw data

STARLINK-380421 69991U 26159S   26262.83431824  .00018657  00000+0  34404-3 0  99922 69991  97.2857 104.6384 0000489 161.7813 198.3456 15.49177691 12344

JSON: /api/v1/satellites/69991 · /tle

For live sub-satellite position, see the globe view (requires WebGL).

§ Visibility from observer

Set your observer location to see the next 7 days of passes ≥ 10°. The values pass through the URL so the page stays shareable.

No JS? Fill the form by hand. The geolocation button needs JavaScript.